TimeEDT,TemperatureF,Dew PointF,Humidity,Sea Level PressureIn,VisibilityMPH,Wind Direction,Wind SpeedMPH,Gust SpeedMPH,PrecipitationIn,Events,Conditions,WindDirDegrees,DateUTC
12:14 AM,72.1,64.8,78,30.00,10.0,ESE,9.2,-,N/A,,Clear,120,2012-08-04 04:14:00
12:34 AM,71.8,64.4,77,29.99,10.0,ESE,10.4,-,N/A,,Clear,110,2012-08-04 04:34:00
12:54 AM,71.6,64.4,78,30.00,10.0,ESE,9.2,-,N/A,,Clear,110,2012-08-04 04:54:00
1:14 AM,71.6,64.4,78,30.00,10.0,ESE,9.2,-,N/A,,Clear,110,2012-08-04 05:14:00
1:34 AM,71.4,63.9,77,30.00,10.0,ESE,9.2,-,N/A,,Clear,120,2012-08-04 05:34:00
1:54 AM,70.7,63.5,78,30.00,10.0,ESE,9.2,-,N/A,,Clear,120,2012-08-04 05:54:00
2:14 AM,70.7,62.8,76,29.99,10.0,ESE,8.1,-,N/A,,Clear,110,2012-08-04 06:14:00
2:34 AM,70.0,62.6,77,29.99,10.0,ESE,8.1,-,N/A,,Clear,120,2012-08-04 06:34:00
2:54 AM,69.8,62.2,77,29.98,10.0,ESE,8.1,-,N/A,,Clear,120,2012-08-04 06:54:00
3:14 AM,69.4,62.2,78,29.97,10.0,ESE,8.1,-,N/A,,Clear,120,2012-08-04 07:14:00
3:34 AM,69.3,62.6,79,29.96,10.0,SE,6.9,-,N/A,,Clear,130,2012-08-04 07:34:00
3:54 AM,69.1,62.6,80,29.96,10.0,SE,5.8,-,N/A,,Clear,130,2012-08-04 07:54:00
4:14 AM,69.1,62.6,80,29.95,10.0,SE,5.8,-,N/A,,Clear,130,2012-08-04 08:14:00
4:34 AM,69.3,62.6,79,29.95,10.0,SE,6.9,-,N/A,,Clear,130,2012-08-04 08:34:00
4:54 AM,69.4,62.6,79,29.94,10.0,SE,8.1,-,N/A,,Clear,130,2012-08-04 08:54:00
5:15 AM,69.8,63.0,79,29.94,10.0,SE,6.9,-,N/A,,Clear,130,2012-08-04 09:15:00
5:34 AM,70.0,63.1,79,29.94,10.0,SE,5.8,-,N/A,,Clear,130,2012-08-04 09:34:00
5:54 AM,70.0,63.5,80,29.94,10.0,SE,5.8,-,N/A,,Clear,130,2012-08-04 09:54:00
6:14 AM,69.8,63.5,80,29.94,10.0,SE,5.8,-,N/A,,Clear,140,2012-08-04 10:14:00
6:34 AM,69.4,63.5,81,29.94,10.0,SE,5.8,-,N/A,,Clear,130,2012-08-04 10:34:00
6:55 AM,69.3,63.7,82,29.94,10.0,SE,5.8,-,N/A,,Clear,140,2012-08-04 10:55:00
7:14 AM,69.4,63.9,82,29.95,10.0,SE,4.6,-,N/A,,Clear,140,2012-08-04 11:14:00
7:34 AM,70.9,64.6,80,29.94,10.0,SE,6.9,-,N/A,,Clear,140,2012-08-04 11:34:00
7:55 AM,71.8,64.9,79,29.94,10.0,SSE,5.8,-,N/A,,Clear,160,2012-08-04 11:55:00
8:14 AM,72.1,65.3,79,29.94,10.0,SSE,5.8,-,N/A,,Clear,150,2012-08-04 12:14:00
8:34 AM,73.9,66.0,76,29.94,10.0,SSE,4.6,-,N/A,,Clear,160,2012-08-04 12:34:00
8:54 AM,75.9,66.2,72,29.93,10.0,SSE,8.1,-,N/A,,Clear,160,2012-08-04 12:54:00
9:14 AM,77.7,66.7,69,29.93,10.0,SSE,9.2,-,N/A,,Clear,160,2012-08-04 13:14:00
9:34 AM,78.8,67.1,67,29.93,10.0,South,6.9,-,N/A,,Clear,190,2012-08-04 13:34:00
9:54 AM,79.3,67.5,67,29.92,10.0,SSE,6.9,-,N/A,,Clear,160,2012-08-04 13:54:00
10:14 AM,81.5,68.5,65,29.91,10.0,SE,6.9,-,N/A,,Clear,140,2012-08-04 14:14:00
10:34 AM,82.9,68.7,62,29.91,10.0,SSE,6.9,-,N/A,,Clear,150,2012-08-04 14:34:00
10:54 AM,84.6,68.5,58,29.90,10.0,South,6.9,-,N/A,,Clear,180,2012-08-04 14:54:00
11:14 AM,86.2,68.5,55,29.90,10.0,SSE,8.1,-,N/A,,Clear,160,2012-08-04 15:14:00
11:34 AM,88.3,69.1,53,29.91,10.0,SSW,8.1,-,N/A,,Clear,200,2012-08-04 15:34:00
11:54 AM,89.4,66.9,47,29.91,10.0,South,8.1,-,N/A,,Clear,170,2012-08-04 15:54:00
12:14 PM,89.8,65.8,45,29.91,10.0,South,8.1,-,N/A,,Clear,190,2012-08-04 16:14:00
12:35 PM,87.3,68.2,53,29.91,10.0,West,11.5,-,N/A,,Clear,260,2012-08-04 16:35:00
12:54 PM,88.0,68.4,52,29.91,10.0,WSW,11.5,-,N/A,,Clear,240,2012-08-04 16:54:00
1:14 PM,89.4,68.2,49,29.90,10.0,WSW,8.1,-,N/A,,Clear,240,2012-08-04 17:14:00
1:34 PM,90.3,66.9,46,29.90,10.0,SSW,6.9,-,N/A,,Clear,210,2012-08-04 17:34:00
1:54 PM,88.9,69.1,52,29.89,10.0,West,6.9,-,N/A,,Clear,270,2012-08-04 17:54:00
2:15 PM,90.0,68.9,50,29.88,10.0,West,5.8,-,N/A,,Clear,270,2012-08-04 18:15:00
2:34 PM,90.5,69.8,50,29.87,10.0,West,10.4,-,N/A,,Clear,270,2012-08-04 18:34:00
2:54 PM,87.3,68.9,54,29.88,10.0,West,12.7,-,N/A,,Clear,270,2012-08-04 18:54:00
3:15 PM,87.1,69.3,55,29.87,10.0,West,10.4,-,N/A,,Clear,270,2012-08-04 19:15:00
3:34 PM,87.8,69.4,54,29.86,10.0,West,9.2,-,N/A,,Clear,270,2012-08-04 19:34:00
3:54 PM,87.3,69.8,56,29.87,10.0,West,15.0,20.7,N/A,,Clear,280,2012-08-04 19:54:00
4:15 PM,86.5,70.5,59,29.86,10.0,West,10.4,-,N/A,,Clear,270,2012-08-04 20:15:00
4:34 PM,84.7,70.9,63,29.85,10.0,WSW,9.2,15.0,N/A,,Clear,240,2012-08-04 20:34:00
4:54 PM,82.8,70.7,67,29.86,10.0,WSW,13.8,-,N/A,,Scattered Clouds,250,2012-08-04 20:54:00
5:14 PM,76.6,67.6,74,29.86,7.0,SW,10.4,17.3,N/A,Rain,Light Rain,220,2012-08-04 21:14:00
5:34 PM,78.8,65.8,64,29.85,10.0,WSW,4.6,-,N/A,,Scattered Clouds,240,2012-08-04 21:34:00
5:54 PM,79.7,66.0,63,29.85,10.0,WSW,6.9,-,N/A,,Scattered Clouds,240,2012-08-04 21:54:00
6:34 PM,80.8,68.5,66,29.85,10.0,West,5.8,-,N/A,,Scattered Clouds,260,2012-08-04 22:34:00
6:54 PM,79.9,69.1,69,29.85,10.0,West,9.2,-,N/A,,Mostly Cloudy,260,2012-08-04 22:54:00
7:14 PM,79.2,70.5,75,29.85,10.0,WSW,8.1,-,N/A,,Overcast,250,2012-08-04 23:14:00
7:34 PM,79.7,70.2,73,29.84,10.0,WSW,6.9,-,N/A,,Mostly Cloudy,250,2012-08-04 23:34:00
7:54 PM,80.1,68.4,67,29.83,10.0,West,9.2,-,N/A,,Mostly Cloudy,260,2012-08-04 23:54:00
8:14 PM,78.3,70.0,76,29.83,10.0,West,12.7,-,N/A,,Scattered Clouds,260,2012-08-05 00:14:00
8:35 PM,77.0,70.9,81,29.83,10.0,WSW,10.4,-,N/A,,Clear,250,2012-08-05 00:35:00
8:54 PM,76.3,71.2,84,29.83,10.0,West,11.5,17.3,N/A,,Clear,260,2012-08-05 00:54:00
9:14 PM,76.1,72.3,88,29.83,7.0,West,10.4,18.4,N/A,,Mostly Cloudy,260,2012-08-05 01:14:00
9:35 PM,75.4,72.5,91,29.85,7.0,Calm,Calm,-,N/A,,Mostly Cloudy,0,2012-08-05 01:35:00
9:54 PM,75.7,72.5,90,29.85,7.0,SE,3.5,-,N/A,,Mostly Cloudy,140,2012-08-05 01:54:00
10:14 PM,75.7,72.3,89,29.83,7.0,Calm,Calm,-,N/A,,Scattered Clouds,0,2012-08-05 02:14:00
10:35 PM,75.4,71.8,89,29.82,7.0,Calm,Calm,-,N/A,,Clear,0,2012-08-05 02:35:00
10:54 PM,74.3,72.0,92,29.82,5.0,Calm,Calm,-,N/A,,Clear,0,2012-08-05 02:54:00
11:14 PM,74.3,72.1,93,29.82,5.0,SSE,3.5,-,N/A,,Clear,160,2012-08-05 03:14:00
11:35 PM,74.3,72.0,92,29.83,5.0,SSW,4.6,-,N/A,,Clear,200,2012-08-05 03:35:00
11:54 PM,74.3,72.0,92,29.82,5.0,South,3.5,-,N/A,,Clear,190,2012-08-05 03:54:00